Regional Weather Roundup
Issued by NWS

Home | Current Version | Previous Version | Text Only | Print | Product List | Glossary On
Versions: 1 2 3 4 5 6 7 8 9 10 11 12 13 14 15 16 17 18 19 20 21 22 23 24 25 26 27 28 29 30 31 32 33 34 35 36 37 38 39 40 41 42 43 44 45 46 47 48 49 50
376
ASUS43 KLSX 222110
RWRMO

WEATHER SUMMARY FOR MISSOURI
NATIONAL WEATHER SERVICE SPRINGFIELD MO
400 PM CDT TUE MAY 22 2018

NOTE: "FAIR" INDICATES FEW OR NO CLOUDS BELOW 12,000 FEET WITH NO
       SIGNIFICANT WEATHER AND/OR OBSTRUCTIONS TO VISIBILITY.
       CURRENT SKY AND/OR WEATHER CONDITIONS ARE NOT AVAILABLE FOR
       CHILLICOTHE AND FARMINGTON.

MOZ001>031-035>038-043-044-053-054-222200-
...NORTHERN AND WESTERN MISSOURI...

CITY           SKY/WX    TMP DP  RH WIND       PRES   REMARKS
KANSAS CTY INT MOSUNNY   84  63  49 SE10      30.00F
KANSAS C DTWN  MOSUNNY   86  61  42 VRB5      29.99F
LEE`S SUMMIT   SUNNY     84  62  47 E6        30.02F
ST JOSEPH      SUNNY     86  64  47 SE14      29.97F
CHILLICOTHE      N/A     85  62  46 VRB5      30.01F
KIRKSVILLE     CLOUDY    83  62  49 VRB3      30.02F

$$
MOZ066>068-077>081-088>096-101>105-222200-
...SOUTHWEST MISSOURI...

CITY           SKY/WX    TMP DP  RH WIND       PRES   REMARKS
SPRINGFIELD    PTSUNNY   84  65  52 E6        30.01F
JOPLIN         MOSUNNY   86  68  54 N6        30.00F
BRANSON        MOSUNNY   84  66  54 SE7       30.02F

$$
MOZ032>034-039>042-045>050-055>058-069>072-222200-
...CENTRAL MISSOURI...

CITY           SKY/WX    TMP DP  RH WIND       PRES   REMARKS
COLUMBIA       SUNNY     84  61  45 NE6       30.03F
JEFFERSON CITY SUNNY     84  59  42 NE7       30.01F
ROLLA          SUNNY     83  61  47 VRB6      30.05F
SEDALIA        SUNNY     83  64  52 SE7       30.04F
WHITEMAN AFB   MOSUNNY   83  63  50 E5        29.99F
OSAGE BEACH    SUNNY     83  61  47 E6        30.04

$$
MOZ051-052-059>065-222200-
...EAST CENTRAL MISSOURI...

CITY           SKY/WX    TMP DP  RH WIND       PRES   REMARKS
ST LOUIS INTL  MOSUNNY   83  63  50 N9        30.03F
SPIRIT OF STL  MOSUNNY   84  62  47 MISG      30.02F
ST CHARLES     SUNNY     83  66  56 VRB5      30.01F

$$
MOZ072>076-082>087-097>100-106>115-222200-
...SOUTH CENTRAL AND SOUTHEAST MISSOURI...

CITY           SKY/WX    TMP DP  RH WIND       PRES   REMARKS
CAPE GIRARDEAU PTSUNNY   86  68  54 CALM      29.98F
FARMINGTON     SUNNY     83  62  49 CALM      30.03F
POPLAR BLUFF   FAIR      87  66  49 N3        29.98F
WEST PLAINS    SUNNY     83  67  58 CALM      30.03F

$$




USA.gov is the U.S. government's official web portal to all federal, state and local government web resources and services.